Tracking 19564 objects as of 19-Mar-2019
HD Live streaming from Space Station
objects crossing your sky now

OSCAR 14 (UOSAT 3)

Track OSCAR 14 (UOSAT 3) now!
10-day predictions
OSCAR 14 (UOSAT 3) is classified as:


NORAD ID: 20437
Int'l Code: 1990-005B
Perigee: 782.7 km
Apogee: 799.6 km
Inclination: 98.7 °
Period: 100.5 minutes
Semi major axis: 7162 km
RCS: 0.3858 m2 (medium)
Launch date: January 22, 1990
Source: United Kingdom (UK)
Launch site: FRENCH GUIANA (FRGUI)

Uplink (MHz): 145.975
Downlink (MHz): 435.070
Beacon (MHz):
Mode: FM
Call sign:
Status: Inactive

aabbcc
Your satellite tracking list
Your tracking list is empty




NASA's NSSDC Master Catalog

Two Line Element Set (TLE):
1 20437U 90005B   19077.46113660 -.00000022  00000-0  87498-5 0  9997
2 20437  98.7447  33.2858 0011732  96.9681  13.2889 14.32312543522715
Source of the keplerian elements: AFSPC